This is the latest recevied weather packets stored in our database for station/object KC4BAM. If no packets are shown the sender has not sent any weather packets the latest 1 day(s).
| Time | Temp. | Humidity | Pressure | Rain* | Wind** | Luminosity | Snow |
|---|---|---|---|---|---|---|---|
| 1778035850 | 17.78° C | 91% | 997.7 hPa | 0 mm | 0.89 m/s, 225° | 0 W/m² | - |
| 1778035547 | 17.78° C | 91% | 997.6 hPa | 0 mm | 0.45 m/s, 198° | 0 W/m² | - |
| 1778035244 | 17.78° C | 90% | 997.5 hPa | 0 mm | 1.34 m/s, 220° | 0 W/m² | - |
| 1778034939 | 17.78° C | 90% | 997.5 hPa | 0 mm | 1.34 m/s, 195° | 0 W/m² | - |
| 1778034637 | 17.78° C | 90% | 997.3 hPa | 0 mm | 0 m/s | 0 W/m² | - |
| 1778034335 | 17.78° C | 91% | 997.1 hPa | 0 mm | 1.34 m/s, 198° | 0 W/m² | - |
| 1778034032 | 17.78° C | 90% | 997.3 hPa | 0 mm | 0.89 m/s, 198° | 0 W/m² | - |
| 1778033729 | 17.22° C | 91% | 997.3 hPa | 0 mm | 0.45 m/s, 204° | 0 W/m² | - |
| 1778033427 | 17.78° C | 91% | 997.2 hPa | 0 mm | 0.45 m/s, 206° | 0 W/m² | - |
| 1778033124 | 17.78° C | 91% | 997.5 hPa | 0 mm | 0 m/s | 0 W/m² | - |
| 1778032821 | 17.22° C | 90% | 997.5 hPa | 0 mm | 0.45 m/s, 197° | 0 W/m² | - |
| 1778032519 | 17.22° C | 90% | 997.6 hPa | 0 mm | 0 m/s | 0 W/m² | - |
| 1778032215 | 17.22° C | 90% | 997.8 hPa | 1.27 mm | 0.89 m/s, 198° | 0 W/m² | - |
| 1778031913 | 17.22° C | 90% | 998 hPa | 1.27 mm | 0.45 m/s, 187° | 0 W/m² | - |
| 1778031609 | 17.22° C | 90% | 997.9 hPa | 0 mm | 0.89 m/s, 211° | 0 W/m² | - |
| 1778031307 | 17.22° C | 89% | 997.9 hPa | 0 mm | 0.89 m/s, 185° | 0 W/m² | - |
| 1778031003 | 17.22° C | 89% | 997.9 hPa | 0 mm | 0.89 m/s, 198° | 0 W/m² | - |
| 1778030699 | 17.22° C | 89% | 997.9 hPa | 0 mm | 0.89 m/s, 200° | 0 W/m² | - |
| 1778030396 | 17.22° C | 88% | 997.7 hPa | 0 mm | 0.45 m/s, 189° | 0 W/m² | - |
| 1778030094 | 17.22° C | 88% | 997.7 hPa | 0 mm | 0.89 m/s, 243° | 0 W/m² | - |
| 1778029790 | 17.22° C | 88% | 997.8 hPa | 0 mm | 0.89 m/s, 195° | 0 W/m² | - |
| 1778029489 | 17.22° C | 88% | 997.7 hPa | 0 mm | 0.89 m/s, 207° | 0 W/m² | - |
| 1778029185 | 17.22° C | 87% | 997.8 hPa | 0 mm | 0.45 m/s, 189° | 0 W/m² | - |
| 1778028884 | 17.22° C | 87% | 997.6 hPa | 0 mm | 0.45 m/s, 203° | 0 W/m² | - |
| 1778028584 | 17.78° C | 87% | 998 hPa | 0 mm | 0.89 m/s, 212° | 0 W/m² | - |
* Rain latest hour (hover to see other rain measurements)
** Current wind speed in m/s (hover to see current wind gust speed)